Flag for Egypt Weather past 2 weeks in Alexandria, Egypt

Now
86 °F

Sunny.


Feels Like: 92 °F
Forecast: 79 / 87 °F
Wind: 10 mph from Northwest

Location: Alexandria / Nouzha

Current Time: Jul 29, 2015 at 6:12:31 PM

Latest Report: Jul 29, 2015 at 5:00 PM


Visibility: 10 mi

Pressure: 29.71 "Hg

Humidity: 62%

Dew point: 72 °F

Location of AlexandriaLocation

Historic Weather in Alexandria — Graph

°F

Alexandria temperature yesterday

Maximum temperature yesterday: 99 °F (at 8:00 PM)
Minimum temperature yesterday: 77 °F (at 4:00 AM)
Average temperature yesterday: 83 °F

Past Weeks' High & Low Weather Summary

 TemperatureHumidityPressure
High99 °F (Jul 28, 8:00 PM)94% (Jul 22, 3:00 AM)29.89 "Hg (Jul 22, 3:00 AM)
Low68 °F (Jul 22, 5:00 AM)22% (Jul 28, 8:00 PM)29.62 "Hg (Jul 28, 8:00 PM)
Average81 °F68%29.76 "Hg
* Reported Jul 14 4:00 PM — Jul 29 4:00 PM, Alexandria, Weather by CustomWeather, © 2015

Note: Actual official high and low records may vary slightly from our data, if they occured in-between our weather recording intervals... More about our weather records

Advertising

Alexandria weather history for previous 24 hours

 ConditionsComfort  
Time TempWeatherWind HumidityBarometerVisibility
4:00 PM
Wed, Jul 29
86 °FSunny.9 mph59%29.71 "Hg10 mi
3:00 PM88 °FSunny.12 mph55%29.71 "Hg10 mi
2:00 PM90 °FSunny.10 mph52%29.71 "Hg10 mi
1:00 PM90 °FSunny.7 mph52%29.71 "Hg10 mi
12:00 PM90 °FSunny.8 mph49%29.71 "Hg10 mi
11:00 AM88 °FSunny.6 mph55%29.71 "Hg10 mi
10:00 AM86 °FScattered clouds.5 mph59%29.74 "HgN/A
9:00 AM86 °FScattered clouds.5 mph55%29.74 "HgN/A
8:00 AM82 °FScattered clouds.5 mph66%29.74 "HgN/A
7:00 AM81 °FPassing clouds.7 mph70%29.74 "HgN/A
6:00 AM77 °FPassing clouds.3 mph83%29.74 "HgN/A
5:00 AM73 °FPassing clouds.5 mph94%29.74 "Hg4 mi
4:00 AM77 °FPassing clouds.5 mph79%29.68 "HgN/A
3:00 AM79 °FPassing clouds.6 mph74%29.71 "HgN/A
2:00 AM79 °FPassing clouds.7 mph74%29.71 "HgN/A
1:00 AM79 °FPassing clouds.7 mph74%29.71 "HgN/A
12:00 AM79 °FPassing clouds.6 mph74%29.77 "HgN/A
11:00 PM
Tue, Jul 28
81 °FClear.7 mph70%29.71 "Hg10 mi
10:00 PM81 °FClear.7 mph70%29.71 "Hg10 mi
9:00 PM81 °FClear.7 mph70%29.74 "Hg10 mi
8:00 PM99 °FClear.12 mph22%29.62 "Hg10 mi
7:00 PM82 °FClear.9 mph66%29.71 "Hg10 mi
6:00 PM84 °FSunny.12 mph62%29.71 "Hg10 mi
Weather by CustomWeather, © 2015

See weather overviewHow to use our weather pages